CW9585 Weather Reports


Display with metric or nautical units.
time (UTC)temp
F
wind
direction
speed
MPH
gust
MPH
rain 1hr
in
rain 24hr
in
rain mn
in
humidity
%
barometer
mb
20260904174204 65 132 2.0 6.0 0.00 0.02 0.02 89 1015.4
20260904173704 65 123 2.0 6.0 0.00 0.02 0.02 90 1015.4
20260904173204 65 113 3.0 6.0 0.00 0.02 0.02 90 1015.4
20260904172704 64 113 2.0 6.0 0.00 0.02 0.02 90 1015.4
20260904172205 64 178 2.0 5.0 0.00 0.02 0.02 91 1015.2
20260904171704 64 169 2.0 5.0 0.00 0.02 0.02 91 1015.2
20260904170704 64 116 1.0 5.0 0.00 0.02 0.02 92 1015.2
20260904170205 63 168 2.0 7.0 0.00 0.02 0.02 92 1015.2
20260904165704 63 149 3.0 8.0 0.00 0.02 0.02 92 1015.2
20260904165205 63 136 3.0 8.0 0.00 0.02 0.02 92 1015.3
20260904164704 63 119 3.0 8.0 0.00 0.02 0.02 92 1015.2
20260904164205 63 109 3.0 7.0 0.00 0.02 0.02 93 1015.2
20260904163704 63 117 3.0 7.0 0.00 0.02 0.02 93 1015.1
20260904163204 63 158 2.0 7.0 0.00 0.02 0.02 93 1015.1
20260904162204 62 113 3.0 7.0 0.00 0.02 0.02 93 1015.0
20260904161705 62 131 3.0 6.0 0.00 0.02 0.02 93 1014.9
20260904161204 62 150 2.0 7.0 0.00 0.02 0.02 94 1014.8
20260904160205 62 153 2.0 7.0 0.00 0.02 0.02 94 1014.7
20260904155705 62 119 2.0 5.0 0.00 0.02 0.02 94 1014.6
20260904155204 62 117 1.0 0.0 0.00 0.02 0.02 94 1014.6
20260904154704 62 126 0.0 0.0 0.00 0.02 0.02 94 1014.6
20260904154204 62 5 0.0 0.0 0.00 0.02 0.02 94 1014.6
20260904153704 62 5 0.0 0.0 0.00 0.02 0.02 94 1014.6
20260904153204 61 5 0.0 1.0 0.00 0.02 0.02 94 1014.6
20260904152704 61 5 0.0 1.0 0.00 0.02 0.02 94 1014.5
20260904152204 61 5 0.0 3.0 0.00 0.02 0.02 94 1014.5
20260904151705 61 5 0.0 3.0 0.00 0.02 0.02 94 1014.5
20260904150704 60 326 1.0 3.0 0.00 0.02 0.02 94 1014.5
20260904150205 60 355 1.0 3.0 0.00 0.02 0.02 94 1014.4
20260904145704 60 0 1.0 3.0 0.00 0.02 0.02 94 1014.4
20260904145204 59 322 0.0 2.0 0.00 0.02 0.02 94 1014.4
20260904143705 59 322 0.0 0.0 0.00 0.02 0.02 93 1014.1
20260904143205 59 322 0.0 3.0 0.00 0.02 0.02 93 1014.1
20260904142704 58 322 0.0 3.0 0.00 0.02 0.02 93 1014.0
20260904142204 58 322 0.0 3.0 0.00 0.02 0.02 93 1014.0
20260904141704 58 321 0.0 0.0 0.00 0.02 0.02 93 1013.9
20260904141204 58 308 0.0 0.0 0.00 0.02 0.02 93 1013.8
20260904140705 59 308 0.0 0.0 0.00 0.02 0.02 93 1013.8
20260904140204 58 308 0.0 0.0 0.00 0.02 0.02 93 1013.7
20260904135704 59 330 0.0 0.0 0.00 0.02 0.02 93 1013.6
20260904135204 59 336 0.0 0.0 0.00 0.02 0.02 93 1013.6
20260904134705 59 336 0.0 0.0 0.00 0.02 0.02 93 1013.5
20260904134204 58 329 0.0 0.0 0.00 0.02 0.02 93 1013.3
20260904133705 58 309 0.0 0.0 0.00 0.02 0.02 93 1013.3
20260904133204 58 309 0.0 0.0 0.00 0.02 0.02 93 1013.3
20260904132704 59 309 0.0 0.0 0.00 0.02 0.02 93 1013.3
20260904132204 59 309 0.0 0.0 0.00 0.02 0.02 93 1013.4
20260904131704 59 309 0.0 0.0 0.00 0.02 0.02 93 1013.4
20260904131204 59 309 0.0 0.0 0.00 0.02 0.02 93 1013.4
20260904130204 59 309 0.0 0.0 0.00 0.02 0.02 93 1013.2
20260904125704 59 309 0.0 0.0 0.00 0.02 0.02 93 1013.3
20260904125204 59 309 0.0 0.0 0.00 0.02 0.02 93 1013.2
20260904124704 59 313 0.0 0.0 0.00 0.02 0.02 93 1013.2
20260904124205 59 313 0.0 0.0 0.00 0.02 0.02 93 1013.2
20260904123704 59 321 0.0 0.0 0.00 0.02 0.02 93 1013.2
20260904123204 59 300 0.0 0.0 0.00 0.02 0.02 93 1013.1
20260904122204 60 313 0.0 3.0 0.00 0.02 0.02 93 1013.1
20260904121705 60 313 0.0 3.0 0.00 0.02 0.02 93 1013.2
20260904121205 60 317 0.0 3.0 0.00 0.02 0.02 94 1013.0
20260904120204 60 308 0.0 0.0 0.00 0.02 0.02 94 1013.1
20260904115705 60 298 0.0 1.0 0.00 0.02 0.02 94 1013.0
20260904115204 60 298 0.0 3.0 0.00 0.02 0.02 94 1013.1
20260904113704 60 319 1.0 3.0 0.00 0.02 0.02 94 1012.9
20260904113204 60 284 1.0 5.0 0.00 0.02 0.02 94 1012.9
20260904112705 60 288 1.0 5.0 0.00 0.02 0.02 94 1012.9
20260904112204 60 329 2.0 6.0 0.00 0.02 0.02 94 1012.8
20260904111704 60 330 2.0 7.0 0.00 0.02 0.02 94 1012.8
20260904110704 61 327 3.0 7.0 0.00 0.02 0.02 94 1012.8
20260904110204 61 301 3.0 7.0 0.00 0.02 0.02 94 1012.7
20260904104204 62 295 1.0 2.0 0.00 0.02 0.02 95 1012.6
20260904103704 62 288 0.0 0.0 0.00 0.02 0.02 95 1012.6
20260904103205 62 296 0.0 0.0 0.00 0.02 0.02 94 1012.6
20260904102204 63 295 0.0 0.0 0.00 0.02 0.02 95 1012.5
20260904101704 63 252 0.0 0.0 0.00 0.02 0.02 94 1012.6
20260904101204 63 252 0.0 0.0 0.00 0.02 0.02 94 1012.6
20260904100704 63 252 0.0 0.0 0.00 0.02 0.02 94 1012.6
20260904100204 64 252 0.0 0.0 0.00 0.02 0.02 95 1012.5
20260904095704 64 252 0.0 0.0 0.00 0.02 0.02 95 1012.6
20260904095204 64 76 0.0 0.0 0.00 0.02 0.02 95 1012.5
20260904094705 63 76 0.0 0.0 0.00 0.02 0.02 95 1012.5
20260904094204 63 76 0.0 0.0 0.00 0.02 0.02 94 1012.5
20260904093705 63 76 0.0 0.0 0.00 0.02 0.02 94 1012.5
20260904093204 63 76 0.0 0.0 0.00 0.02 0.02 94 1012.4
20260904092704 63 76 0.0 0.0 0.00 0.02 0.02 94 1012.5
20260904092205 63 76 0.0 0.0 0.00 0.02 0.02 94 1012.5
20260904091704 63 76 0.0 0.0 0.00 0.02 0.02 94 1012.4
20260904091204 63 76 0.0 0.0 0.00 0.02 0.02 94 1012.4
20260904090204 63 84 0.0 0.0 0.00 0.02 0.02 94 1012.5
20260904085205 63 59 0.0 0.0 0.01 0.02 0.02 94 1012.5
20260904084704 63 47 0.0 0.0 0.01 0.02 0.02 94 1012.5
20260904084204 63 90 0.0 0.0 0.01 0.02 0.02 94 1012.6
20260904083204 63 163 0.0 0.0 0.02 0.02 0.02 94 1012.6
20260904082204 63 163 0.0 0.0 0.02 0.02 0.02 94 1012.6
20260904081705 63 163 0.0 0.0 0.02 0.02 0.02 94 1012.7
20260904081204 63 163 0.0 2.0 0.02 0.02 0.02 94 1012.8
20260904080705 63 163 0.0 2.0 0.02 0.02 0.02 94 1012.8
20260904080204 63 163 0.0 2.0 0.02 0.02 0.02 94 1012.8
20260904075704 63 163 0.0 2.0 0.01 0.01 0.01 94 1012.8
20260904074704 63 163 0.0 1.0 0.01 0.01 0.01 94 1012.8
20260904074205 63 163 0.0 3.0 0.01 0.01 0.01 94 1012.7
20260904073705 63 163 0.0 3.0 0.00 0.00 0.00 94 1012.6
20260904073204 63 163 0.0 3.0 0.00 0.00 0.00 94 1012.7
20260904072204 63 149 0.0 2.0 0.00 0.00 0.00 94 1012.7
20260904071705 63 149 0.0 3.0 0.00 0.00 0.00 94 1012.7
20260904071204 63 149 1.0 3.0 0.00 0.00 0.00 93 1012.6
20260904070704 63 149 1.0 2.0 0.00 0.00 0.00 93 1012.6
20260904070205 63 149 0.0 2.0 0.00 0.00 0.00 93 1012.6
20260904065704 63 149 0.0 2.0 0.00 0.00 0.00 93 1012.6
20260904065204 63 120 0.0 0.0 0.00 0.00 0.00 93 1012.7
20260904064704 63 120 0.0 0.0 0.00 0.00 0.00 93 1012.6
20260904064204 63 120 0.0 0.0 0.00 0.00 0.00 93 1012.7
20260904063704 63 120 0.0 0.0 0.00 0.00 0.00 93 1012.7
20260904062704 63 120 0.0 4.0 0.00 0.00 0.00 93 1012.8
20260904062205 63 120 1.0 4.0 0.00 0.00 0.00 93 1012.7
20260904061205 64 134 1.0 4.0 0.00 0.00 0.00 93 1012.7
20260904060704 64 140 0.0 4.0 0.00 0.00 0.00 93 1012.8
20260904060205 64 196 1.0 4.0 0.00 0.00 0.00 93 1012.9
20260904055704 64 196 2.0 6.0 0.00 0.00 0.00 93 1012.9
20260904054205 64 188 1.0 3.0 0.00 0.00 0.00 93 1013.0
20260904053205 64 168 1.0 4.0 0.00 0.00 0.00 93 1013.1
20260904052704 64 200 0.0 4.0 0.00 0.00 0.00 93 1013.2
20260904052204 64 200 1.0 4.0 0.00 0.00 0.00 92 1013.2
20260904051705 64 217 1.0 4.0 0.00 0.00 0.00 92 1013.3
20260904051204 64 217 1.0 5.0 0.00 0.00 0.00 92 1013.3
20260904045704 64 195 1.0 5.0 0.00 0.00 0.00 92 1013.4
20260904045204 64 190 2.0 5.0 0.00 0.00 0.00 92 1013.5
20260904044705 64 200 2.0 5.0 0.00 0.00 0.00 92 1013.4
20260904044204 64 200 2.0 5.0 0.00 0.00 0.00 92 1013.5
20260904043204 64 188 3.0 5.0 0.00 0.00 0.00 92 1013.4
20260904042704 64 188 3.0 5.0 0.00 0.00 0.00 92 1013.4
20260904042204 64 181 2.0 5.0 0.00 0.00 0.00 92 1013.4
20260904041704 64 200 3.0 5.0 0.00 0.00 0.00 92 1013.3
20260904041204 64 225 3.0 5.0 0.00 0.00 0.00 92 1013.4
20260904040704 64 229 3.0 5.0 0.00 0.00 0.00 92 1013.5
20260904040204 64 193 3.0 4.0 0.00 0.00 0.00 91 1013.2
20260904035704 64 196 2.0 5.0 0.00 0.00 0.00 91 1013.1
20260904035204 64 224 2.0 6.0 0.00 0.00 0.00 92 1013.2
20260904034704 64 223 2.0 6.0 0.00 0.00 0.00 92 1013.0
20260904034204 64 227 3.0 8.0 0.00 0.00 0.00 91 1013.0
20260904033704 64 212 4.0 8.0 0.00 0.00 0.00 91 1013.1
20260904033204 64 198 5.0 9.0 0.00 0.00 0.00 91 1012.9
20260904032704 64 204 5.0 9.0 0.00 0.00 0.00 91 1013.0
20260904032205 64 200 5.0 9.0 0.00 0.00 0.00 91 1013.0
20260904031705 65 194 4.0 8.0 0.00 0.00 0.00 91 1012.9
20260904031205 65 188 4.0 8.0 0.00 0.00 0.00 91 1012.9
20260904030704 65 189 3.0 6.0 0.00 0.00 0.00 90 1012.9
20260904025704 65 214 3.0 8.0 0.00 0.00 0.00 90 1012.9
20260904025204 64 215 4.0 8.0 0.00 0.00 0.00 90 1013.0
20260904024704 65 224 4.0 8.0 0.00 0.00 0.00 90 1013.0
20260904024204 64 232 4.0 8.0 0.00 0.00 0.00 90 1012.9
20260904023704 64 230 3.0 9.0 0.00 0.00 0.00 89 1012.9
20260904023205 65 184 4.0 9.0 0.00 0.00 0.00 89 1013.0
20260904022705 65 194 4.0 9.0 0.00 0.00 0.00 89 1013.0
20260904022204 65 209 4.0 10.0 0.00 0.00 0.00 88 1013.0
20260904021704 65 210 5.0 10.0 0.00 0.00 0.00 88 1012.9
20260904021204 65 200 5.0 10.0 0.00 0.00 0.00 88 1013.0
20260904020704 65 200 5.0 11.0 0.00 0.00 0.00 87 1013.0
20260904020205 66 196 5.0 11.0 0.00 0.00 0.00 87 1013.1
20260904015704 66 200 6.0 12.0 0.00 0.00 0.00 86 1013.1
20260904015204 66 188 6.0 12.0 0.00 0.00 0.00 86 1013.1
20260904014705 67 197 6.0 12.0 0.00 0.00 0.00 85 1013.2
20260904014204 67 217 5.0 9.0 0.00 0.00 0.00 85 1013.2
20260904013704 67 200 5.0 11.0 0.00 0.00 0.00 85 1013.2
20260904013204 67 176 5.0 11.0 0.00 0.00 0.00 85 1013.2
20260904012705 67 223 6.0 11.0 0.00 0.00 0.00 85 1013.2
20260904012205 67 192 6.0 9.0 0.00 0.00 0.00 84 1013.2
20260904011205 67 220 5.0 10.0 0.00 0.00 0.00 84 1013.2
20260904010204 67 203 5.0 12.0 0.00 0.00 0.00 84 1013.3
20260904005704 67 216 5.0 12.0 0.00 0.00 0.00 83 1013.4
20260904005204 67 173 5.0 12.0 0.00 0.00 0.00 84 1013.3
20260904004705 67 182 5.0 12.0 0.00 0.00 0.00 84 1013.3
20260904004204 67 179 6.0 14.0 0.00 0.00 0.00 84 1013.3
20260904003704 67 244 7.0 14.0 0.00 0.00 0.00 84 1013.3
20260904003204 67 197 7.0 14.0 0.00 0.00 0.00 83 1013.3
20260904002704 67 202 7.0 13.0 0.00 0.00 0.00 83 1013.4
20260904002204 68 216 7.0 16.0 0.00 0.00 0.00 83 1013.4
20260904000705 68 216 7.0 12.0 0.00 0.00 0.00 81 1013.5
20260904000204 69 196 6.0 12.0 0.00 0.00 0.00 81 1013.4
20260903235705 69 181 6.0 12.0 0.00 0.00 0.00 81 1013.4
20260903235205 69 173 7.0 12.0 0.00 0.00 0.00 81 1013.6
20260903233705 68 202 7.0 16.0 0.00 0.00 0.00 81 1013.7
20260903233205 69 200 6.0 13.0 0.00 0.00 0.00 81 1013.7
20260903232704 69 211 6.0 14.0 0.00 0.00 0.00 81 1013.7
20260903231704 68 205 8.0 14.0 0.00 0.00 0.00 81 1013.7
20260903231204 69 223 7.0 13.0 0.00 0.00 0.00 80 1013.7
20260903230704 69 229 7.0 13.0 0.00 0.00 0.00 79 1013.9
20260903230205 69 211 7.0 14.0 0.00 0.00 0.00 80 1013.8
20260903225204 69 213 8.0 14.0 0.00 0.00 0.00 79 1014.0
20260903224704 69 205 8.0 14.0 0.00 0.00 0.00 79 1014.0
20260903224204 69 177 7.0 14.0 0.00 0.00 0.00 79 1014.1
20260903223704 69 179 7.0 15.0 0.00 0.00 0.00 79 1014.0
20260903223204 69 211 7.0 15.0 0.00 0.00 0.00 79 1014.1
20260903222705 69 183 7.0 15.0 0.00 0.00 0.00 80 1014.1
20260903222205 69 267 8.0 14.0 0.00 0.00 0.00 80 1014.1
20260903221704 69 207 8.0 15.0 0.00 0.00 0.00 80 1014.2
20260903220704 68 183 8.0 15.0 0.00 0.00 0.00 80 1014.3
20260903220205 68 182 8.0 15.0 0.00 0.00 0.00 79 1014.4
20260903214704 69 232 6.0 12.0 0.00 0.00 0.00 77 1014.5
20260903213704 69 208 6.0 10.0 0.00 0.00 0.00 79 1014.6
20260903213204 69 255 5.0 14.0 0.00 0.00 0.00 80 1014.7
20260903212704 68 189 7.0 20.0 0.00 0.00 0.00 81 1014.7
20260903212205 67 182 8.0 20.0 0.00 0.00 0.00 81 1014.7
20260903211205 67 203 9.0 17.0 0.00 0.00 0.00 80 1014.9
20260903210704 67 205 10.0 17.0 0.00 0.00 0.00 80 1014.9
20260903210204 67 186 9.0 17.0 0.00 0.00 0.00 79 1015.0
20260903205704 67 210 7.0 13.0 0.00 0.00 0.00 78 1015.0
20260903205204 68 243 7.0 13.0 0.00 0.00 0.00 78 1015.1
20260903204705 67 205 7.0 13.0 0.00 0.00 0.00 78 1015.0
20260903204205 68 166 6.0 10.0 0.00 0.00 0.00 77 1015.0
20260903203704 68 217 6.0 11.0 0.00 0.00 0.00 76 1015.1
20260903203205 68 211 5.0 14.0 0.00 0.00 0.00 77 1015.0
20260903202705 68 188 6.0 14.0 0.00 0.00 0.00 77 1015.2
20260903201704 67 178 8.0 14.0 0.00 0.00 0.00 77 1015.1
20260903200704 68 212 7.0 11.0 0.00 0.00 0.00 75 1015.2
20260903195704 69 245 5.0 11.0 0.00 0.00 0.00 77 1015.3
20260903194705 67 196 6.0 13.0 0.00 0.00 0.00 78 1015.5
20260903193204 67 218 7.0 14.0 0.00 0.00 0.00 78 1015.6
20260903192705 67 182 8.0 14.0 0.00 0.00 0.00 78 1015.5
20260903192204 67 199 6.0 12.0 0.00 0.00 0.00 77 1015.7
20260903191204 68 188 5.0 9.0 0.00 0.00 0.00 75 1015.7
20260903190704 69 207 4.0 10.0 0.00 0.00 0.00 76 1015.8
20260903185705 67 184 5.0 9.0 0.00 0.00 0.00 76 1016.0
20260903184705 68 186 4.0 9.0 0.00 0.00 0.00 75 1016.2
20260903184205 68 196 4.0 8.0 0.00 0.00 0.00 75 1016.2
20260903183705 67 235 4.0 8.0 0.00 0.00 0.00 76 1016.2
20260903183204 67 235 4.0 8.0 0.00 0.00 0.00 76 1016.2
20260903182704 67 236 4.0 8.0 0.00 0.00 0.00 77 1016.4
20260903182204 67 182 4.0 8.0 0.00 0.00 0.00 78 1016.4
20260903181705 67 182 4.0 8.0 0.00 0.00 0.00 78 1016.3
20260903181204 66 110 4.0 8.0 0.00 0.00 0.00 79 1016.3
20260903180205 65 186 5.0 9.0 0.00 0.00 0.00 79 1016.3
20260903175704 65 178 5.0 10.0 0.00 0.00 0.00 79 1016.2
20260903174705 65 160 4.0 8.0 0.00 0.00 0.00 79 1016.2